Location: Bagnolo San Vito
(45.0833°N, 10.8833°E)
Time: 00:03:10
(UTC+00:00)

Cosmos 2237 - Pass Details

Date: 03 March 2021
Orbit: 845 x 856 km, 70.8° (Epoch: 17 April)

Event Time Altitude Azimuth Distance (km) Brightness Sun altitude
Rises 18:06:04 0° 196° (SSW) 3,406 7.5 -11.3°
Reaches altitude 10° 18:08:31 10° 193° (SSW) 2,475 6.8 -11.7°
Maximum altitude 18:14:10 68° 112° (ESE) 920 4.2 -12.7°
Drops below altitude 10° 18:19:52 10° 31° (NNE) 2,498 6.4 -13.7°
Sets 18:22:20 0° 29° (NNE) 3,438 7.1 -14.1°
